sat.trackr.live / text

‹ back to catalog

MUOS-5

NORAD 41622 · 2016-041A

PAYLOAD ACTIVE UNKNOWN

§ Identity

Operator
Country
US
Launch date
2016-06-24
Launch site
AFETR
Launch vehicle
Mass (kg)
RCS (m²)
14.25

Purposes: comms

External: N2YO · Heavens-Above · Gunter

§ Orbital elements

Epoch: 2026-09-10T05:03:51.206112Z

Period
1,436.09 min
Inclination
2.0297°
Eccentricity
0.0203594
Mean motion
1.00272480 rev/d
Perigee alt
34,928.0 km
Apogee alt
36,644.8 km
Semi-major
42,164.5 km
B*
0.0000e+0
RAAN
303.5811°
Arg perigee
260.7798°
Mean anomaly
115.8680°
Rev number
3,794

§ Raw data

MUOS-51 41622U 16041A   26253.21100933 -.00000173  00000+0  00000+0 0  99942 41622   2.0297 303.5811 0203594 260.7798 115.8680  1.00272480 37946

JSON: /api/v1/satellites/41622 · /tle

For live sub-satellite position, see the globe view (requires WebGL).

§ Visibility from observer

Set your observer location to see the next 7 days of passes ≥ 10°. The values pass through the URL so the page stays shareable.

No JS? Fill the form by hand. The geolocation button needs JavaScript.